Flag for United Arab Emirates Weather past 2 weeks in Abu Dhabi, Abu Dhabi, United Arab Emirates

Now
63 °F

Sunny.


Feels Like: 63 °F
Forecast: 64 / 71 °F
Wind: 1 mph from North

Location: Abu Dhabi Bateen Airport

Current Time: Jan 26, 2015 at 9:02:27 AM

Latest Report: Jan 26, 2015 at 8:00 AM


Visibility: 10 mi

Pressure: 30.21 "Hg

Humidity: 77%

Dew point: 55 °F

Location of Abu DhabiLocation

Historic Weather in Abu Dhabi — Graph

°F

Abu Dhabi temperature yesterday

Maximum temperature yesterday: 73 °F (at 2:00 PM)
Minimum temperature yesterday: 57 °F (at 4:00 AM)
Average temperature yesterday: 66 °F

Past Weeks' High & Low Weather Summary

 TemperatureHumidityPressure
High79 °F (Jan 17, 2:00 PM)94% (Jan 17, 4:00 AM)30.24 "Hg (Jan 17, 4:00 AM)
Low57 °F (Jan 23, 4:00 AM)26% (Jan 17, 2:00 PM)29.89 "Hg (Jan 26, 12:00 AM)
Average67 °F66%30.11 "Hg
* Reported Jan 11 8:00 AM — Jan 26 8:00 AM, Abu Dhabi, Weather by CustomWeather, © 2014

Note: Actual official high and low records may vary slightly from our data, if they occured in-between our weather recording intervals... More about our weather records

Advertising

Abu Dhabi weather history for previous 24 hours

 ConditionsComfort  
Time TempWeatherWind HumidityBarometerVisibility
8:00 AM
Jan 26
63 °FSunny.1 mph77%30.21 "Hg10 mi
7:00 AM61 °FClear.1 mph83%30.18 "Hg10 mi
6:00 AM63 °FClear.2 mph83%30.18 "Hg10 mi
5:00 AM63 °FPassing clouds.3 mph83%30.15 "HgN/A
4:00 AM63 °FClear.6 mph77%30.15 "Hg10 mi
3:00 AM63 °FClear.3 mph83%30.18 "Hg10 mi
2:00 AM63 °FPassing clouds.3 mph83%30.18 "HgN/A
1:00 AM66 °FPassing clouds.3 mph73%N/AN/A
12:00 AM66 °FPassing clouds.5 mph73%29.89 "HgN/A
11:00 PM
Jan 25
68 °FClear.7 mph69%29.95 "Hg10 mi
10:00 PM68 °FClear.5 mph73%30.21 "Hg10 mi
9:00 PM68 °FPassing clouds.6 mph78%30.21 "HgN/A
8:00 PM70 °FPassing clouds.6 mph73%30.18 "HgN/A
7:00 PM70 °FClear.9 mph69%30.18 "Hg10 mi
6:00 PM70 °FSunny.10 mph64%30.15 "Hg10 mi
5:00 PM72 °FSunny.13 mph61%30.15 "Hg10 mi
4:00 PM73 °FSunny.13 mph53%30.15 "Hg10 mi
3:00 PM73 °FPassing clouds.10 mph53%30.15 "HgN/A
2:00 PM73 °FPassing clouds.9 mph53%30.15 "HgN/A
1:00 PM72 °FScattered clouds.7 mph57%30.18 "HgN/A
12:00 PM72 °FScattered clouds.9 mph61%30.21 "HgN/A
11:00 AM70 °FPassing clouds.7 mph60%30.24 "HgN/A
10:00 AM70 °FClear.2 mph64%30.21 "Hg5 mi
9:00 AM63 °FHaze.3 mph83%30.21 "Hg3 mi
Weather by CustomWeather, © 2014

See weather overviewHow to use our weather pages